Location: ????????
(37.6846°N, 24.0673°E)
Time: 15:04:18
(UTC+00:00)

Cosmos 921 Rocket - Pass Details

Date: 14 July 2020
Orbit: 572 x 632 km, 75.8° (Epoch: 03 August)

Event Time Altitude Azimuth Distance (km) Brightness Sun altitude
Rises 00:31:25 0° 352° (N) 2,886 7.3 -24.1°
Reaches altitude 10° 00:33:49 10° 0° (N) 1,967 6.4 -23.9°
Maximum altitude 00:37:55 39° 69° (ENE) 914 4.3 -23.5°
Enters shadow 00:40:28 20° 128° (SE) 1,405 4.8 -23.2°
